1998-067WD

Last updated on Thu Dec 21 2023 00:02:06 GMT+0000 (Coordinated Universal Time)

1 58612U 98067WD 23353.44777387 .00052712 00000+0 88141-3 0 9996 2 58612 51.6397 130.8806 0002886 319.5820 145.1128 15.51372557 242
UTC large
Height (km)
Speed (km/s)
/
Latitude / Longitude
Inclination (degrees)
Orbital Period (minutes)
Azimuth
Elevation
Range (km)
Doppler Factor

Next 0 passes for location: London (51.5072 / 0.1276)

Sorry there are no passes over London.